[[{"header":{"parameterUnit":"m.s-1","parameterCategory":1,"la1":30.2991,"la2":30.254,"lo1":-89.0895,"lo2":-89.0444,"dy":0.0017,"dx":0.0017,"nx":28,"ny":28,"refTime":"2024-10-10T21:00:00:Z","depth":0,"parameterNumber":2,"parameterNumberName":"U-component_of_WINDS"},"data":[0,0,0,0,0,0,0,0,0,0,0,0,0,0,0,0,0,0,0,0,0,0,0,0,0,0,0,0,0,0,0,0,0,0,0,0,0,0,0,0,0,0,0,0,0,0,0,0,0,0,0,0,0,0,0,0,0,0,-3.554,-3.5543,0,-3.5808,-3.5811,-3.5814,-3.5805,-3.5801,-3.5798,-3.5794,-3.6071,-3.6082,-3.6092,0,0,0,0,0,0,0,0,0,0,0,0,0,-3.5026,-3.5035,-3.554,-3.5543,-3.5547,-3.5807,-3.5811,-3.5814,-3.5806,-3.5801,-3.5797,-3.5792,-3.6068,-3.608,-3.6093,0,0,0,0,0,0,0,0,0,0,0,0,0,-3.5267,-3.5038,-3.5539,-3.5573,-3.5579,-3.5806,-3.5811,-3.5815,-3.5807,-3.5801,-3.5795,-3.579,-3.6063,-3.6079,-3.6095,-3.6307,0,0,-3.6145,-3.6152,0,0,0,0,0,0,0,0,-3.5253,-3.5286,-3.5565,-3.5572,-3.5578,-3.5767,-3.5731,-3.598,-3.5808,-3.572,-3.5794,-3.5787,-3.5975,-3.5998,-3.606,-3.632,-3.6332,-3.6146,-3.6156,-3.6163,-3.6168,0,0,0,0,0,0,0,-3.5237,-3.5274,-3.5646,-3.5569,-3.5577,-3.5577,-3.5605,-3.5778,-3.5876,-3.5728,-3.5728,-3.5759,-3.5977,-3.6045,-3.6067,-3.6336,-3.6146,-3.616,-3.617,-3.6177,-3.6785,-3.6791,0,0,0,0,0,0,-3.5212,-3.526,-3.5637,-3.5654,-3.5399,-3.5591,-3.5622,-3.5712,-3.5874,-3.5893,-3.5764,-3.5758,-3.602,-3.6048,-3.6077,-3.6336,-3.6163,-3.6178,-3.6188,-3.6778,-3.6786,-3.6793,0,0,0,0,0,0,-3.5201,-3.5246,-3.5627,-3.5457,-3.5506,-3.5605,-3.5707,-3.572,-3.5788,-3.5901,-3.5919,-3.5814,-3.6016,-3.6054,-3.625,-3.6345,-3.6186,-3.62,-3.6771,-3.6781,-3.6789,-3.6855,0,0,0,0,0,0,-3.5186,-3.5242,-3.5322,-3.5459,-3.5515,-3.5794,-3.5713,-3.573,-3.5815,-3.581,-3.5953,-3.5972,-3.6015,-3.6226,-3.6266,-3.6365,-3.6213,-3.6763,-3.6775,-3.6786,-3.6845,-3.6866,-3.6884,0,0,0,0,0,-3.5168,-3.533,-3.5326,-3.5372,-3.5617,-3.58,-3.5832,-3.5877,-3.5823,-3.5905,-3.5978,-3.5967,-3.6329,-3.6246,-3.6291,-3.6396,-3.6757,-3.6772,-3.6785,-3.6836,-3.6862,-3.6883,0,0,0,0,0,0,-3.5202,-3.5349,-3.5346,-3.5557,-3.5666,-3.5798,-3.5902,-3.5903,-3.603,-3.602,-3.6072,-3.6105,-3.6301,-3.6369,-3.6274,-3.6611,-3.6536,-3.656,-3.6559,-3.6584,-3.6603,-3.6583,-3.6227,0,0,0,0,0,-3.5234,-3.5369,-3.549,-3.5665,-3.572,-3.5802,-3.5883,-3.5909,-3.6025,-3.6071,-3.6158,-3.6272,-3.6411,-3.6501,-3.6636,-3.6855,-3.6887,-3.695,-3.6969,-3.6985,-3.7005,-3.7127,-3.7157,-3.684,-3.684,-3.684,0,0,-3.5302,-3.5399,-3.5481,-3.5675,-3.5762,-3.5902,-3.5841,-3.5991,-3.6096,-3.6094,-3.6284,-3.6353,-3.6483,-3.6692,-3.6788,-3.6754,-3.71,-3.7003,-3.7014,-3.7027,-3.7145,-3.7175,-3.7202,-3.685,-3.6848,-3.6847,0,0,-3.5496,-3.5583,-3.5738,-3.5827,-3.596,-3.6014,-3.6052,-3.6185,-3.623,-3.6422,-3.6424,-3.655,-3.6789,-3.6882,-3.696,-3.7193,-3.7187,-3.7235,-3.7336,-3.7455,-3.748,-3.7502,-3.7586,-3.7615,-3.7255,-3.7255,-3.7256,0,-3.5564,-3.5773,-3.5818,-3.597,-3.6056,-3.6061,-3.6219,-3.6304,-3.6475,-3.6535,-3.6494,-3.6794,-3.6882,-3.7114,-3.717,-3.7234,-3.7279,-3.7219,-3.7473,-3.7496,-3.7517,-3.7597,-3.7629,-3.726,-3.726,-3.7259,-3.7259,0,-3.585,-3.5996,-3.6105,-3.6269,-3.6368,-3.6522,-3.6592,-3.6687,-3.6705,-3.6764,-3.6961,-3.7067,-3.7223,-3.7281,-3.73,-3.7516,-3.749,-3.7461,-3.7387,-3.7551,-3.7628,-3.7659,-3.7267,-3.7266,-3.7264,-3.7263,0,0,-3.6072,-3.626,-3.6299,-3.6374,-3.6523,-3.6637,-3.6793,-3.6945,-3.7025,-3.7144,-3.7277,-3.7479,-3.7453,-3.7543,-3.7573,-3.7677,-3.7856,-3.7635,-3.7639,-3.7673,-3.8102,-3.8122,-3.8157,-3.7854,-3.786,-3.7865,-3.8091,0,-3.6281,-3.6556,-3.6602,-3.6843,-3.6979,-3.6987,-3.7123,-3.723,-3.729,-3.7415,-3.7482,-3.7625,-3.7579,-3.7633,-3.7737,-3.7812,-3.7943,-3.7797,-3.7979,-3.7985,-3.7945,-3.8197,-3.8219,-3.8427,-3.8121,-3.8126,-3.8129,0,-3.6562,-3.6687,-3.6941,-3.7073,-3.7131,-3.7252,-3.7397,-3.7516,-3.7638,-3.7675,-3.7776,-3.7794,-3.7958,-3.7878,-3.8105,-3.8005,-3.8083,-3.8131,-3.8141,-3.8159,-3.8066,-3.8221,-3.8494,-3.8525,-3.8177,-3.8173,-3.817,0,-3.6698,-3.693,-3.7113,-3.7177,-3.7335,-3.742,-3.749,-3.7606,-3.7696,-3.7823,-3.7881,-3.8026,-3.8106,-3.8218,-3.8276,-3.8212,-3.85,-3.8424,-3.8536,-3.8535,-3.8595,-3.8591,-3.8884,-3.8647,-3.8646,-3.8646,-3.8645,0,-3.6927,-3.7082,-3.7176,-3.7288,-3.7463,-3.7516,-3.7689,-3.7757,-3.7862,-3.7989,-3.8005,-3.8124,-3.8194,-3.8325,-3.8372,-3.8553,-3.8589,-3.8624,-3.8635,-3.8622,-3.8618,-3.8673,-3.866,-3.8654,-3.8652,-3.865,-3.8649,0,-3.7107,-3.7176,-3.7376,-3.7509,-3.7547,-3.767,-3.7785,-3.7895,-3.7955,-3.8116,-3.8157,-3.8253,-3.8407,-3.8476,-3.8667,-3.8699,-3.8906,-3.8907,-3.8864,-3.8868,-3.8975,-3.8964,-3.9314,-3.9363,-3.9094,-3.9096,-3.9098,0,-3.7248,-3.7367,-3.7514,-3.76,-3.7672,-3.781,-3.7901,-3.796,-3.8054,-3.8204,-3.8297,-3.8451,-3.8577,-3.8824,-3.8911,-3.9058,-3.9062,-3.9175,-3.9084,-3.9068,-3.9064,-3.9055,-3.9068,-3.919,-3.9193,-3.9195,-3.9197,0,-3.749,-3.7519,-3.7649,-3.7793,-3.7901,-3.8017,-3.813,-3.82,-3.8276,-3.8382,-3.854,-3.8638,-3.8833,-3.8987,-3.9139,-3.9213,-3.9219,-3.9225,-3.9259,-3.9247,-3.9217,-3.9235,-3.8908,-3.9216,-3.9214,-3.9213,-3.9212,-3.9211,-3.7656,-3.7763,-3.7883,-3.8028,-3.8119,-3.8226,-3.8336,-3.8411,-3.8542,-3.8704,-3.8732,-3.89,-3.9022,-3.9227,-3.9307,-3.9441,-3.9414,-3.9462,-3.9475,-3.9486,-3.9492,-3.9197,-3.9469,-3.9468,-3.9468,-3.9468,-3.9467,0,-3.7899,-3.7977,-3.811,-3.8268,-3.8383,-3.8377,-3.8504,-3.86,-3.8747,-3.886,-3.8985,-3.9167,-3.9317,-3.9416,-3.9569,-3.9657,-3.9663,-3.9695,-3.9688,-3.9706,-3.9507,-3.9463,-3.9687,-3.9687,-3.9687,-3.9687,-3.9687,-3.9687,-3.8038,-3.8219,-3.8263,-3.8491,-3.8569,-3.8732,-3.8805,-3.8904,-3.8994,-3.9196,-3.932,-3.9384,-3.9493,-3.9654,-3.9792,-3.9817,-3.9873,-3.9905,-3.993,-3.9742,-3.9719,-3.9697,-3.9656,-3.9917,-3.9917,-4.0117,-4.0119,-4.0121]},{"header":{"parameterUnit":"m.s-1","parameterCategory":1,"la1":30.2991,"la2":30.254,"lo1":-89.0895,"lo2":-89.0444,"dy":0.0017,"dx":0.0017,"nx":28,"ny":28,"refTime":"2024-10-10T21:00:00:Z","depth":0,"parameterNumber":3,"parameterNumberName":"V-component_of_WINDS"},"data":[0,0,0,0,0,0,0,0,0,0,0,0,0,0,0,0,0,0,0,0,0,0,0,0,0,0,0,0,0,0,0,0,0,0,0,0,0,0,0,0,0,0,0,0,0,0,0,0,0,0,0,0,0,0,0,0,0,0,-0.2481,-0.2482,0,-0.2534,-0.2534,-0.2535,-0.2565,-0.2565,-0.2565,-0.2565,-0.2615,-0.2616,-0.2617,0,0,0,0,0,0,0,0,0,0,0,0,0,-0.2404,-0.2405,-0.2481,-0.2482,-0.2483,-0.2534,-0.2534,-0.2535,-0.2565,-0.2565,-0.2565,-0.2565,-0.2615,-0.2616,-0.2617,0,0,0,0,0,0,0,0,0,0,0,0,0,-0.2445,-0.2405,-0.2481,-0.2504,-0.2506,-0.2534,-0.2534,-0.2535,-0.2565,-0.2565,-0.2565,-0.2565,-0.2614,-0.2616,-0.2618,-0.2626,0,0,-0.2623,-0.2624,0,0,0,0,0,0,0,0,-0.2442,-0.2448,-0.25,-0.2502,-0.2505,-0.2543,-0.2525,-0.2565,-0.2565,-0.2542,-0.2565,-0.2565,-0.2591,-0.2594,-0.2604,-0.2628,-0.263,-0.2623,-0.2625,-0.2625,-0.2626,0,0,0,0,0,0,0,-0.244,-0.2446,-0.2502,-0.25,-0.2504,-0.251,-0.2516,-0.2533,-0.2565,-0.2544,-0.2547,-0.2553,-0.2592,-0.2602,-0.2605,-0.2631,-0.2623,-0.2625,-0.2626,-0.2627,-0.2665,-0.2664,0,0,0,0,0,0,-0.2434,-0.2443,-0.25,-0.2504,-0.2474,-0.2511,-0.2518,-0.2531,-0.2565,-0.257,-0.2552,-0.2554,-0.2599,-0.2603,-0.2607,-0.2619,-0.2625,-0.2627,-0.2628,-0.2665,-0.2664,-0.2664,0,0,0,0,0,0,-0.2432,-0.2438,-0.2498,-0.2474,-0.2482,-0.2513,-0.2526,-0.2532,-0.2541,-0.2571,-0.2576,-0.2557,-0.2599,-0.2604,-0.2621,-0.2621,-0.2628,-0.263,-0.2665,-0.2665,-0.2664,-0.2643,0,0,0,0,0,0,-0.2429,-0.2438,-0.2442,-0.2474,-0.2483,-0.2512,-0.2526,-0.2532,-0.2545,-0.2547,-0.2576,-0.2581,-0.26,-0.2618,-0.2623,-0.2624,-0.2631,-0.2665,-0.2665,-0.2664,-0.2644,-0.2642,-0.2641,0,0,0,0,0,-0.2427,-0.2433,-0.2442,-0.2449,-0.2489,-0.2512,-0.2518,-0.2539,-0.2545,-0.2549,-0.2568,-0.258,-0.262,-0.262,-0.2625,-0.2627,-0.2665,-0.2665,-0.2664,-0.2645,-0.2643,-0.2641,0,0,0,0,0,0,-0.2398,-0.2437,-0.2448,-0.2465,-0.2485,-0.2517,-0.2523,-0.2536,-0.2555,-0.2556,-0.2581,-0.2587,-0.2602,-0.2616,-0.2614,-0.2636,-0.2644,-0.2645,-0.2627,-0.2625,-0.2624,-0.262,-0.2632,0,0,0,0,0,-0.2394,-0.2411,-0.2444,-0.2455,-0.2465,-0.2492,-0.2503,-0.2518,-0.254,-0.2548,-0.2569,-0.2588,-0.2605,-0.2616,-0.2633,-0.2646,-0.2653,-0.265,-0.2648,-0.2647,-0.2647,-0.2655,-0.2655,-0.2664,-0.2664,-0.2664,0,0,-0.2386,-0.2409,-0.2418,-0.245,-0.2468,-0.2484,-0.2499,-0.2515,-0.2527,-0.255,-0.2568,-0.2583,-0.2607,-0.2622,-0.2629,-0.2634,-0.2646,-0.2646,-0.2645,-0.2646,-0.2655,-0.2654,-0.2653,-0.2663,-0.2664,-0.2664,0,0,-0.2379,-0.2398,-0.241,-0.2428,-0.2455,-0.2473,-0.2476,-0.2506,-0.2518,-0.2536,-0.2554,-0.2568,-0.2597,-0.2613,-0.2625,-0.2624,-0.2637,-0.2629,-0.2621,-0.2628,-0.2628,-0.2627,-0.2627,-0.2627,-0.2629,-0.2629,-0.2629,0,-0.2364,-0.239,-0.2414,-0.243,-0.2444,-0.2467,-0.2479,-0.2494,-0.2525,-0.2534,-0.2538,-0.2576,-0.2593,-0.2612,-0.2612,-0.2621,-0.2625,-0.2626,-0.2626,-0.2626,-0.2626,-0.2626,-0.2626,-0.2628,-0.2628,-0.2628,-0.2628,0,-0.2372,-0.2389,-0.2396,-0.2427,-0.2441,-0.2454,-0.248,-0.2491,-0.2505,-0.2522,-0.254,-0.2562,-0.2584,-0.259,-0.2602,-0.2611,-0.2613,-0.2621,-0.263,-0.2623,-0.2624,-0.2625,-0.2626,-0.2627,-0.2627,-0.2627,0,0,-0.2348,-0.2393,-0.2395,-0.241,-0.2441,-0.2455,-0.2469,-0.2492,-0.2502,-0.2522,-0.2534,-0.2558,-0.2567,-0.258,-0.2595,-0.2602,-0.26,-0.261,-0.261,-0.2608,-0.2611,-0.2605,-0.2605,-0.2609,-0.2609,-0.2609,-0.261,0,-0.2346,-0.2375,-0.2398,-0.2417,-0.2434,-0.2456,-0.2469,-0.2489,-0.2505,-0.2521,-0.2538,-0.2555,-0.2564,-0.2573,-0.258,-0.2599,-0.2602,-0.2599,-0.262,-0.2621,-0.2615,-0.2606,-0.2599,-0.2599,-0.261,-0.261,-0.261,0,-0.2348,-0.2369,-0.2391,-0.2422,-0.243,-0.2441,-0.2464,-0.2479,-0.2502,-0.2513,-0.2529,-0.2544,-0.256,-0.2566,-0.2587,-0.2585,-0.2595,-0.2605,-0.2606,-0.2609,-0.2616,-0.2609,-0.2599,-0.26,-0.2611,-0.2611,-0.2611,0,-0.233,-0.2364,-0.2382,-0.2393,-0.2429,-0.2436,-0.2451,-0.2475,-0.2487,-0.2507,-0.2515,-0.2536,-0.2547,-0.2562,-0.2583,-0.2585,-0.2602,-0.261,-0.2612,-0.2611,-0.2615,-0.2614,-0.2607,-0.262,-0.262,-0.262,-0.262,0,-0.2326,-0.2339,-0.2374,-0.2385,-0.24,-0.2425,-0.2438,-0.2455,-0.2475,-0.2489,-0.2509,-0.2521,-0.2547,-0.2562,-0.2578,-0.2594,-0.2598,-0.2607,-0.2612,-0.2606,-0.2605,-0.2613,-0.2614,-0.262,-0.262,-0.262,-0.262,0,-0.2309,-0.2333,-0.2354,-0.2386,-0.2395,-0.2404,-0.2432,-0.2443,-0.246,-0.2477,-0.2483,-0.251,-0.2529,-0.2551,-0.2576,-0.2587,-0.2601,-0.2607,-0.2594,-0.2597,-0.2597,-0.2597,-0.2596,-0.2597,-0.2608,-0.2608,-0.2608,0,-0.2305,-0.2316,-0.235,-0.2361,-0.2376,-0.2394,-0.2407,-0.2432,-0.2445,-0.2472,-0.248,-0.25,-0.2518,-0.2547,-0.2569,-0.2588,-0.2595,-0.2593,-0.2598,-0.2592,-0.2596,-0.2595,-0.2596,-0.2592,-0.2592,-0.2591,-0.2591,0,-0.2296,-0.2308,-0.2327,-0.2351,-0.2367,-0.2386,-0.2406,-0.2414,-0.2442,-0.2455,-0.2476,-0.249,-0.2517,-0.2537,-0.256,-0.2574,-0.2587,-0.2589,-0.2591,-0.2586,-0.2578,-0.2583,-0.2591,-0.2589,-0.259,-0.259,-0.259,-0.259,-0.2286,-0.2297,-0.2323,-0.2344,-0.2362,-0.238,-0.2392,-0.2412,-0.243,-0.2455,-0.2467,-0.2488,-0.251,-0.2542,-0.2556,-0.2571,-0.2576,-0.2578,-0.2578,-0.2579,-0.2577,-0.2575,-0.2575,-0.2575,-0.2575,-0.2575,-0.2575,0,-0.2279,-0.2297,-0.2316,-0.2344,-0.236,-0.2373,-0.2395,-0.2408,-0.2426,-0.2446,-0.2464,-0.2488,-0.2507,-0.253,-0.2551,-0.2559,-0.2566,-0.2564,-0.2564,-0.2567,-0.2572,-0.2569,-0.2558,-0.2558,-0.2558,-0.2558,-0.2558,-0.2558,-0.2277,-0.2296,-0.2311,-0.2339,-0.2356,-0.2377,-0.2389,-0.2406,-0.2423,-0.2449,-0.2466,-0.2481,-0.2502,-0.2525,-0.2543,-0.255,-0.2557,-0.2553,-0.2561,-0.2565,-0.2567,-0.2568,-0.2565,-0.2554,-0.2554,-0.2555,-0.2555,-0.2555]}]]